GW3329 Weather Reports


Display with metric or nautical units.
time (UTC)temp
F
wind
direction
speed
MPH
gust
MPH
rain 1hr
in
rain 24hr
in
rain mn
in
humidity
%
barometer
mb
20260831024600 71 144 0.0 0.0 0.00 0.00 0.00 70 1015.0
20260831024058 72 152 0.0 2.0 0.00 0.00 0.00 70 1014.9
20260831023557 72 128 0.0 0.0 0.00 0.00 0.00 70 1014.8
20260831023056 72 141 0.0 0.0 0.00 0.00 0.00 69 1014.8
20260831022551 73 134 0.0 0.0 0.00 0.00 0.00 68 1014.9
20260831022046 73 134 0.0 1.0 0.00 0.00 0.00 68 1015.0
20260831021544 73 100 0.0 1.0 0.00 0.00 0.00 68 1014.7
20260831021036 74 151 1.0 2.0 0.00 0.00 0.00 67 1014.7
20260831020531 74 164 0.0 1.0 0.00 0.00 0.00 67 1015.1
20260831020025 75 135 0.0 2.0 0.00 0.00 0.00 67 1015.1
20260831015521 75 148 0.0 1.0 0.00 0.00 0.00 66 1014.9
20260831015016 75 105 1.0 2.0 0.00 0.00 0.00 66 1015.0
20260831014510 75 267 0.0 1.0 0.00 0.00 0.00 65 1014.8
20260831014006 76 143 0.0 0.0 0.00 0.00 0.00 65 1014.9
20260831013502 76 83 1.0 2.0 0.00 0.00 0.00 65 1014.9
20260831012955 77 262 0.0 1.0 0.00 0.00 0.00 64 1014.9
20260831012450 77 135 1.0 1.0 0.00 0.00 0.00 63 1015.1
20260831011944 78 161 0.0 0.0 0.00 0.00 0.00 62 1015.0
20260831011439 78 131 1.0 2.0 0.00 0.00 0.00 62 1015.0
20260831010936 78 156 1.0 2.0 0.00 0.00 0.00 62 1014.9
20260831010435 79 173 1.0 3.0 0.00 0.00 0.00 61 1015.1
20260831005931 79 155 1.0 2.0 0.00 0.00 0.00 62 1015.0
20260831005426 79 158 0.0 3.0 0.00 0.00 0.00 62 1015.1
20260831004926 79 275 4.0 4.0 0.00 0.00 0.00 62 1015.1
20260831004423 79 183 2.0 3.0 0.00 0.00 0.00 62 1014.8
20260831003918 79 342 4.0 4.0 0.00 0.00 0.00 63 1014.8
20260831003413 79 115 1.0 3.0 0.00 0.00 0.00 64 1014.8
20260831002908 80 115 0.0 2.0 0.00 0.00 0.00 64 1015.0
20260831002407 81 197 2.0 4.0 0.00 0.00 0.00 62 1014.8
20260831001902 81 292 0.0 7.0 0.00 0.00 0.00 61 1014.8
20260831001357 82 274 3.0 4.0 0.00 0.00 0.00 60 1014.8
20260831000855 82 168 2.0 6.0 0.00 0.00 0.00 60 1014.7
20260831000350 82 259 2.0 7.0 0.00 0.00 0.00 60 1014.6
20260830235848 82 48 1.0 2.0 0.00 0.00 0.00 60 1014.6
20260830235343 83 201 1.0 3.0 0.00 0.00 0.00 60 1014.9
20260830234839 83 32 1.0 2.0 0.00 0.00 0.00 59 1014.8
20260830234334 84 207 3.0 6.0 0.00 0.00 0.00 59 1014.9
20260830233830 84 128 2.0 4.0 0.00 0.00 0.00 59 1014.6
20260830233325 85 227 1.0 3.0 0.00 0.00 0.00 57 1014.5
20260830232821 85 327 1.0 3.0 0.00 0.00 0.00 57 1015.0
20260830232316 86 63 1.0 2.0 0.00 0.00 0.00 56 1014.7
20260830231812 86 147 1.0 3.0 0.00 0.00 0.00 57 1015.0
20260830231307 86 19 1.0 4.0 0.00 0.00 0.00 57 1014.8
20260830230801 86 149 0.0 2.0 0.00 0.00 0.00 57 1014.8
20260830230257 87 62 2.0 3.0 0.00 0.00 0.00 56 1014.7
20260830225756 87 352 2.0 3.0 0.00 0.00 0.00 56 1014.7
20260830225251 87 158 1.0 3.0 0.00 0.00 0.00 55 1014.9
20260830224750 86 193 1.0 4.0 0.00 0.00 0.00 57 1015.0
20260830224245 86 233 2.0 6.0 0.00 0.00 0.00 56 1014.9
20260830223737 86 214 2.0 4.0 0.00 0.00 0.00 57 1014.9
20260830223232 85 192 1.0 7.0 0.00 0.00 0.00 58 1015.0
20260830222726 85 174 2.0 4.0 0.00 0.00 0.00 58 1015.1
20260830222221 86 62 1.0 4.0 0.00 0.00 0.00 57 1015.1
20260830221711 87 78 2.0 4.0 0.00 0.00 0.00 58 1015.3
20260830221209 87 244 3.0 4.0 0.00 0.00 0.00 56 1015.3
20260830220703 86 206 1.0 2.0 0.00 0.00 0.00 58 1015.2
20260830220202 87 232 3.0 7.0 0.00 0.00 0.00 57 1015.6
20260830215701 87 155 1.0 4.0 0.00 0.00 0.00 58 1015.6
20260830215201 86 155 1.0 2.0 0.00 0.00 0.00 59 1015.6
20260830214656 87 153 1.0 3.0 0.00 0.00 0.00 58 1015.9
20260830214150 86 191 2.0 7.0 0.00 0.00 0.00 57 1015.9
20260830213649 86 279 2.0 4.0 0.00 0.00 0.00 58 1015.6
20260830213145 86 69 1.0 4.0 0.00 0.00 0.00 59 1016.0
20260830212641 86 174 1.0 7.0 0.00 0.00 0.00 59 1016.0
20260830212136 86 196 2.0 7.0 0.00 0.00 0.00 58 1016.2
20260830211631 86 193 1.0 2.0 0.00 0.00 0.00 59 1016.3
20260830211130 87 263 2.0 3.0 0.00 0.00 0.00 57 1016.3
20260830210626 87 229 3.0 6.0 0.00 0.00 0.00 57 1016.2
20260830210125 86 241 2.0 3.0 0.00 0.00 0.00 58 1016.2
20260830205622 86 56 1.0 3.0 0.00 0.00 0.00 60 1016.1
20260830205118 85 153 0.0 2.0 0.00 0.00 0.00 61 1016.3
20260830204618 86 271 3.0 4.0 0.00 0.00 0.00 60 1016.2
20260830204116 86 257 3.0 6.0 0.00 0.00 0.00 59 1016.3
20260830203613 87 173 1.0 6.0 0.00 0.00 0.00 59 1016.4
20260830203113 87 323 2.0 3.0 0.00 0.00 0.00 59 1016.2
20260830202613 87 123 0.0 4.0 0.00 0.00 0.00 60 1016.3
20260830202108 86 130 1.0 2.0 0.00 0.00 0.00 59 1016.2
20260830201608 86 92 0.0 9.0 0.00 0.00 0.00 61 1016.4
20260830201103 86 73 3.0 3.0 0.00 0.00 0.00 60 1016.2
20260830200558 86 134 1.0 6.0 0.00 0.00 0.00 61 1016.3
20260830200057 86 66 2.0 4.0 0.00 0.00 0.00 60 1016.2
20260830195553 85 5 2.0 4.0 0.00 0.00 0.00 61 1016.5
20260830195051 86 187 4.0 7.0 0.00 0.00 0.00 60 1016.5
20260830194550 86 185 2.0 6.0 0.00 0.00 0.00 60 1016.7
20260830194045 86 164 1.0 8.0 0.00 0.00 0.00 59 1016.4
20260830193544 85 229 3.0 6.0 0.00 0.00 0.00 60 1016.6
20260830193040 85 147 3.0 7.0 0.00 0.00 0.00 61 1016.4
20260830192535 86 219 6.0 10.0 0.00 0.00 0.00 60 1016.3
20260830192029 86 201 3.0 7.0 0.00 0.00 0.00 60 1016.6
20260830191525 86 199 1.0 3.0 0.00 0.00 0.00 58 1016.5
20260830191020 85 207 0.0 2.0 0.00 0.00 0.00 60 1016.4
20260830190515 85 102 1.0 3.0 0.00 0.00 0.00 60 1016.6
20260830190010 85 241 2.0 4.0 0.00 0.00 0.00 59 1016.4
20260830185504 86 237 4.0 6.0 0.00 0.00 0.00 58 1016.6
20260830184959 85 158 1.0 4.0 0.00 0.00 0.00 59 1016.6
20260830184453 84 212 3.0 7.0 0.00 0.00 0.00 59 1016.5
20260830183948 84 68 0.0 6.0 0.00 0.00 0.00 60 1016.6
20260830183447 85 223 2.0 7.0 0.00 0.00 0.00 58 1016.8
20260830182943 85 234 3.0 6.0 0.00 0.00 0.00 57 1016.7
20260830182438 85 213 1.0 4.0 0.00 0.00 0.00 59 1016.6
20260830181934 84 351 2.0 7.0 0.00 0.00 0.00 59 1016.4
20260830181425 84 234 3.0 6.0 0.00 0.00 0.00 60 1016.2
20260830180925 83 261 1.0 4.0 0.00 0.00 0.00 61 1016.6
20260830180424 83 203 2.0 4.0 0.00 0.00 0.00 61 1016.6
20260830175923 83 227 3.0 6.0 0.00 0.00 0.00 60 1016.5
20260830175423 82 136 0.0 3.0 0.00 0.00 0.00 63 1016.4
20260830174918 82 139 1.0 4.0 0.00 0.00 0.00 61 1016.5
20260830174413 83 251 3.0 6.0 0.00 0.00 0.00 61 1016.4
20260830173909 84 203 2.0 3.0 0.00 0.00 0.00 61 1016.7
20260830173404 84 59 1.0 3.0 0.00 0.00 0.00 61 1016.6
20260830172900 84 83 1.0 2.0 0.00 0.00 0.00 61 1016.5
20260830172356 83 83 1.0 3.0 0.00 0.00 0.00 61 1016.5
20260830171851 83 253 3.0 3.0 0.00 0.00 0.00 60 1016.4
20260830171347 84 97 1.0 1.0 0.00 0.00 0.00 60 1016.5
20260830170842 84 119 1.0 3.0 0.00 0.00 0.00 60 1016.4
20260830170341 83 153 1.0 1.0 0.00 0.00 0.00 59 1016.4
20260830165840 82 120 0.0 0.0 0.00 0.00 0.00 63 1016.2
20260830165336 81 76 2.0 3.0 0.00 0.00 0.00 62 1016.2
20260830164832 81 116 0.0 2.0 0.00 0.00 0.00 63 1016.2
20260830164328 81 129 0.0 2.0 0.00 0.00 0.00 63 1016.2
20260830163825 81 114 1.0 4.0 0.00 0.00 0.00 63 1016.4
20260830163320 81 125 2.0 2.0 0.00 0.00 0.00 62 1016.4
20260830162814 80 172 1.0 2.0 0.00 0.00 0.00 64 1016.4
20260830162311 79 120 0.0 2.0 0.00 0.00 0.00 66 1016.5
20260830161811 79 104 1.0 2.0 0.00 0.00 0.00 66 1016.6
20260830161310 79 118 1.0 2.0 0.00 0.00 0.00 66 1016.7
20260830160806 78 148 1.0 1.0 0.00 0.00 0.00 67 1016.4
20260830160306 78 125 0.0 1.0 0.00 0.00 0.00 69 1016.5
20260830155802 78 125 0.0 1.0 0.00 0.00 0.00 70 1016.3
20260830155259 78 126 0.0 1.0 0.00 0.00 0.00 70 1016.4
20260830154759 78 99 2.0 4.0 0.00 0.00 0.00 69 1016.5
20260830154254 80 130 1.0 2.0 0.00 0.00 0.00 66 1016.2
20260830153751 80 130 0.0 1.0 0.00 0.00 0.00 67 1016.6
20260830153247 78 126 0.0 2.0 0.00 0.00 0.00 70 1016.2
20260830152745 78 134 0.0 0.0 0.00 0.00 0.00 73 1016.4
20260830152240 76 130 0.0 0.0 0.00 0.00 0.00 75 1016.4
20260830151739 75 110 1.0 2.0 0.00 0.00 0.00 76 1016.3
20260830151239 76 120 0.0 1.0 0.00 0.00 0.00 76 1016.4
20260830150734 75 94 1.0 1.0 0.00 0.00 0.00 76 1016.2
20260830150233 74 124 0.0 0.0 0.00 0.00 0.00 78 1016.3
20260830145728 74 91 1.0 1.0 0.00 0.00 0.00 79 1016.3
20260830145223 73 141 0.0 1.0 0.00 0.00 0.00 79 1016.3
20260830144723 72 133 0.0 0.0 0.00 0.00 0.00 82 1016.3
20260830144220 71 123 0.0 0.0 0.00 0.00 0.00 84 1016.4
20260830143716 70 116 1.0 1.0 0.00 0.00 0.00 84 1016.4
20260830143213 69 132 0.0 0.0 0.00 0.00 0.00 86 1016.5
20260830142709 68 121 0.0 0.0 0.00 0.00 0.00 89 1016.5
20260830142204 67 143 0.0 0.0 0.00 0.00 0.00 92 1016.4
20260830141659 66 158 0.0 0.0 0.00 0.00 0.00 94 1016.4
20260830141154 65 158 0.0 0.0 0.00 0.00 0.00 95 1016.4
20260830140649 65 165 0.0 0.0 0.00 0.00 0.00 95 1016.3
20260830140144 64 166 0.0 0.0 0.00 0.00 0.00 96 1016.3
20260830135634 64 167 0.0 0.0 0.00 0.00 0.00 96 1016.1
20260830135128 64 167 0.0 0.0 0.00 0.00 0.00 96 1016.1
20260830134624 64 167 0.0 0.0 0.00 0.00 0.00 96 1016.1
20260830134119 64 169 0.0 0.0 0.00 0.00 0.00 96 1015.9
20260830133614 64 178 0.0 0.0 0.00 0.00 0.00 96 1016.0
20260830133110 64 156 0.0 0.0 0.00 0.00 0.00 96 1015.7
20260830132606 64 155 0.0 0.0 0.00 0.00 0.00 96 1015.6
20260830132101 63 155 0.0 0.0 0.00 0.00 0.00 96 1015.7
20260830131600 63 154 0.0 0.0 0.00 0.00 0.00 96 1015.5
20260830131055 63 154 0.0 0.0 0.00 0.00 0.00 96 1015.6
20260830130549 63 155 0.0 0.0 0.00 0.00 0.00 95 1015.5
20260830130045 63 164 0.0 0.0 0.00 0.00 0.00 95 1015.7
20260830125540 64 165 0.0 0.0 0.00 0.00 0.00 95 1015.7
20260830125039 64 170 0.0 0.0 0.00 0.00 0.00 95 1015.6
20260830124538 64 155 0.0 0.0 0.00 0.00 0.00 95 1015.6
20260830124034 64 205 0.0 0.0 0.00 0.00 0.00 95 1015.7
20260830123531 64 171 0.0 0.0 0.00 0.00 0.00 95 1015.7
20260830123026 64 174 0.0 0.0 0.00 0.00 0.00 95 1015.5
20260830122522 64 207 0.0 0.0 0.00 0.00 0.00 95 1015.5
20260830122018 64 257 0.0 0.0 0.00 0.00 0.00 95 1015.2
20260830121513 64 177 0.0 0.0 0.00 0.00 0.00 95 1015.2
20260830121007 64 162 0.0 0.0 0.00 0.00 0.00 94 1015.2
20260830120503 64 163 0.0 0.0 0.00 0.00 0.00 94 1015.3
20260830115959 64 163 0.0 0.0 0.00 0.00 0.00 94 1015.2
20260830115455 64 163 0.0 0.0 0.00 0.00 0.00 94 1015.2
20260830114950 64 172 0.0 0.0 0.00 0.00 0.00 94 1015.5
20260830114446 64 159 0.0 0.0 0.00 0.00 0.00 93 1015.6
20260830113940 64 159 0.0 0.0 0.00 0.00 0.00 93 1015.3
20260830113435 65 166 0.0 0.0 0.00 0.00 0.00 94 1015.3
20260830112931 65 175 0.0 0.0 0.00 0.00 0.00 94 1015.3
20260830112427 65 170 0.0 0.0 0.00 0.00 0.00 93 1015.3
20260830111923 65 173 0.0 0.0 0.00 0.00 0.00 94 1015.1
20260830111418 65 161 0.0 0.0 0.00 0.00 0.00 93 1015.1
20260830110913 65 160 0.0 0.0 0.00 0.00 0.00 93 1015.1
20260830110409 65 190 0.0 0.0 0.00 0.00 0.00 93 1014.9
20260830105908 65 160 0.0 0.0 0.00 0.00 0.00 92 1015.1
20260830105405 65 146 0.0 1.0 0.00 0.00 0.00 92 1015.1
20260830104901 65 180 0.0 0.0 0.00 0.00 0.00 92 1015.0
20260830104357 65 194 0.0 1.0 0.00 0.00 0.00 92 1015.1
20260830103856 66 218 0.0 0.0 0.00 0.00 0.00 93 1015.1
20260830103353 65 167 0.0 0.0 0.00 0.00 0.00 93 1015.1
20260830102850 65 167 0.0 0.0 0.00 0.00 0.00 92 1014.9
20260830102346 65 167 0.0 0.0 0.00 0.00 0.00 92 1015.0
20260830101843 65 167 0.0 0.0 0.00 0.00 0.00 92 1015.0
20260830101337 66 167 0.0 0.0 0.00 0.00 0.00 92 1015.3
20260830100836 66 167 0.0 0.0 0.00 0.00 0.00 92 1015.0
20260830100330 66 167 0.0 0.0 0.00 0.00 0.00 91 1015.0
20260830095824 66 167 0.0 0.0 0.00 0.00 0.00 91 1015.1
20260830095320 66 167 0.0 0.0 0.00 0.00 0.00 91 1015.2
20260830094816 66 167 0.0 0.0 0.00 0.00 0.00 91 1015.1
20260830094312 66 167 0.0 0.0 0.00 0.00 0.00 90 1015.0
20260830093807 66 167 0.0 0.0 0.00 0.00 0.00 91 1014.8
20260830093303 66 167 0.0 0.0 0.00 0.00 0.00 90 1014.9
20260830092803 66 167 0.0 0.0 0.00 0.00 0.00 90 1015.1
20260830092259 66 167 0.0 0.0 0.00 0.00 0.00 90 1015.1
20260830091755 66 167 0.0 0.0 0.00 0.00 0.00 90 1015.2
20260830091255 67 168 0.0 0.0 0.00 0.00 0.00 90 1015.2
20260830090754 67 167 0.0 0.0 0.00 0.00 0.00 90 1014.9
20260830090249 67 185 0.0 0.0 0.00 0.00 0.00 90 1015.0
20260830085749 67 170 0.0 0.0 0.00 0.00 0.00 88 1014.9
20260830085244 67 159 0.0 0.0 0.00 0.00 0.00 88 1015.2
20260830084740 67 162 0.0 0.0 0.00 0.00 0.00 89 1015.2
20260830084235 67 162 0.0 1.0 0.00 0.00 0.00 89 1015.2
20260830083730 67 199 1.0 1.0 0.00 0.00 0.00 89 1015.1
20260830083226 67 177 0.0 0.0 0.00 0.00 0.00 89 1015.0
20260830082725 67 174 0.0 0.0 0.00 0.00 0.00 88 1014.9
20260830082221 67 154 0.0 0.0 0.00 0.00 0.00 87 1015.2
20260830081716 68 160 0.0 0.0 0.00 0.00 0.00 86 1015.3
20260830081216 68 161 0.0 0.0 0.00 0.00 0.00 86 1015.2
20260830080710 68 162 0.0 0.0 0.00 0.00 0.00 86 1014.8
20260830080206 68 160 0.0 0.0 0.00 0.00 0.00 85 1015.1
20260830075659 69 176 1.0 1.0 0.00 0.00 0.00 86 1015.1
20260830075155 69 162 0.0 0.0 0.00 0.00 0.00 86 1015.2
20260830074650 69 163 0.0 0.0 0.00 0.00 0.00 85 1014.9
20260830074146 69 158 0.0 0.0 0.00 0.00 0.00 84 1015.1
20260830073642 69 157 0.0 0.0 0.00 0.00 0.00 84 1015.2
20260830073137 69 162 0.0 0.0 0.00 0.00 0.00 84 1015.3
20260830072632 69 159 0.0 1.0 0.00 0.00 0.00 84 1015.1
20260830072127 69 216 1.0 2.0 0.00 0.00 0.00 84 1015.0
20260830071622 69 179 0.0 0.0 0.00 0.00 0.00 85 1015.2
20260830071114 69 160 0.0 0.0 0.00 0.00 0.00 85 1015.0
20260830070610 69 180 0.0 0.0 0.00 0.00 0.00 84 1015.1
20260830070104 69 167 0.0 0.0 0.00 0.00 0.00 84 1015.2
20260830065603 69 183 0.0 0.0 0.00 0.00 0.00 84 1015.0
20260830065102 69 156 0.0 0.0 0.00 0.00 0.00 84 1015.1
20260830064556 69 151 0.0 0.0 0.00 0.00 0.00 84 1014.6
20260830064051 69 149 0.0 0.0 0.00 0.00 0.00 84 1014.7
20260830063545 69 168 0.0 0.0 0.00 0.00 0.00 83 1014.7
20260830063044 70 155 0.0 0.0 0.00 0.00 0.00 82 1014.6
20260830062539 70 162 0.0 0.0 0.00 0.00 0.00 82 1014.7
20260830062034 70 156 0.0 0.0 0.00 0.00 0.00 82 1014.6
20260830061533 70 165 0.0 0.0 0.00 0.00 0.00 82 1014.9
20260830061030 70 183 0.0 0.0 0.00 0.00 0.00 82 1014.9
20260830060526 71 161 0.0 0.0 0.00 0.00 0.00 81 1014.7
20260830060022 71 165 0.0 0.0 0.00 0.00 0.00 81 1014.8
20260830055517 71 171 0.0 0.0 0.00 0.00 0.00 81 1014.7
20260830055014 71 153 0.0 0.0 0.00 0.00 0.00 81 1014.7
20260830054509 71 155 0.0 0.0 0.00 0.00 0.00 81 1014.7
20260830054005 71 163 0.0 0.0 0.00 0.00 0.00 81 1014.8
20260830053500 72 156 0.0 0.0 0.00 0.00 0.00 79 1014.5
20260830052959 72 245 0.0 0.0 0.00 0.00 0.00 80 1014.6
20260830052455 72 199 0.0 0.0 0.00 0.00 0.00 79 1014.7
20260830051950 72 174 0.0 0.0 0.00 0.00 0.00 79 1014.9
20260830051449 72 160 0.0 0.0 0.00 0.00 0.00 79 1014.9
20260830050944 72 160 0.0 0.0 0.00 0.00 0.00 79 1014.8
20260830050440 72 143 0.0 0.0 0.00 0.00 0.00 77 1015.0
20260830045938 72 155 0.0 0.0 0.00 0.00 0.00 78 1014.8
20260830045433 72 160 0.0 0.0 0.00 0.00 0.00 79 1014.8
20260830044932 73 185 0.0 0.0 0.00 0.00 0.00 77 1015.0
20260830044428 73 151 0.0 0.0 0.00 0.00 0.00 78 1015.1
20260830043923 73 172 0.0 0.0 0.00 0.00 0.00 78 1015.2
20260830043417 72 164 0.0 0.0 0.00 0.00 0.00 77 1015.1
20260830042915 73 190 0.0 0.0 0.00 0.00 0.00 78 1015.2
20260830042410 73 168 0.0 0.0 0.00 0.00 0.00 76 1015.2
20260830041909 73 181 0.0 0.0 0.00 0.00 0.00 77 1014.8
20260830041408 73 163 0.0 0.0 0.00 0.00 0.00 77 1015.0
20260830040903 73 154 0.0 0.0 0.00 0.00 0.00 76 1015.0
20260830040359 73 153 0.0 0.0 0.00 0.00 0.00 76 1014.9
20260830035858 73 167 0.0 1.0 0.00 0.00 0.00 75 1014.9
20260830035357 74 186 1.0 2.0 0.00 0.00 0.00 75 1014.8
20260830034852 74 155 0.0 0.0 0.00 0.00 0.00 74 1014.7
20260830034348 74 146 0.0 0.0 0.00 0.00 0.00 73 1014.7
20260830033843 74 147 0.0 0.0 0.00 0.00 0.00 72 1014.7
20260830033343 74 158 0.0 0.0 0.00 0.00 0.00 72 1014.7
20260830032838 75 156 0.0 0.0 0.00 0.00 0.00 72 1014.7
20260830032332 75 163 0.0 0.0 0.00 0.00 0.00 72 1014.6
20260830031828 75 172 0.0 0.0 0.00 0.00 0.00 72 1014.6
20260830031323 75 183 0.0 0.0 0.00 0.00 0.00 72 1014.5
20260830030818 75 188 1.0 1.0 0.00 0.00 0.00 73 1014.6
20260830030314 75 182 1.0 1.0 0.00 0.00 0.00 72 1014.4
20260830025813 75 188 1.0 1.0 0.00 0.00 0.00 72 1014.3
20260830025308 75 152 0.0 0.0 0.00 0.00 0.00 72 1014.7